Location: Rigi Scheidegg
(47.0208°N, 8.5416°E)
Time: 09:18:14
(UTC+02:00)

ISS - Visible Passes

Search period start: 28 September 2021 00:00
Search period end: 08 October 2021 00:00
Orbit: 417 x 422 km, 51.6° (Epoch: 28 September)

Date Brightness Start Highest point End Pass type
(mag) Time Alt. Az. Time Alt. Az. Time Alt. Az.
28 Sep -3.4 21:05:57 10° WNW 21:09:08 56° N 21:09:08 56° N visible
29 Sep -3.1 20:18:31 10° WNW 20:21:48 45° NNE 20:23:31 23° ENE visible
29 Sep -1.0 21:55:23 10° WNW 21:56:28 19° WNW 21:56:28 19° WNW visible
30 Sep -3.4 21:07:50 10° WNW 21:10:49 64° W 21:10:49 64° W visible
01 Oct -3.8 20:20:14 10° WNW 20:23:37 77° NNE 20:25:07 30° ESE visible
01 Oct -0.6 21:57:30 10° W 21:58:04 13° W 21:58:04 13° W visible
02 Oct -3.5 19:32:35 10° WNW 19:35:55 57° NNE 19:39:14 10° E visible
02 Oct -2.3 21:09:32 10° WNW 21:12:22 32° SW 21:12:22 32° SW visible
03 Oct -3.1 20:21:41 10° WNW 20:24:57 49° SSW 20:26:41 24° SSE visible
04 Oct -3.6 19:33:49 10° WNW 19:37:11 76° SSW 19:40:32 10° ESE visible
04 Oct -1.1 21:11:42 10° WSW 21:13:29 14° SW 21:13:58 13° SW visible
05 Oct -1.5 20:23:09 10° W 20:25:47 21° SW 20:28:20 10° S visible
06 Oct -2.1 19:34:54 10° WNW 19:37:57 33° SW 19:41:00 10° SSE visible
